Theta_e
346 346 347 348 345 344 345 345 347 347 347 346 348 348 349 348 344 341 341 341 344 343 344 344 341 338 338 336 335 336 337 337 336 329 323 321 320 321
345 347 348 348 347 345 347 346 346 348 349 346 345 347 351 350 349 347 345 341 339 341 343 344 344 340 337 336 336 335 335 335 336 336 336 329 324 323
348 347 347 348 347 346 346 346 346 347 347 345 346 347 349 350 349 348 349 349 342 337 339 343 344 344 340 336 336 336 335 335 335 335 336 338 336 333
341 346 347 347 347 347 346 347 346 347 345 346 347 347 349 350 350 349 349 348 347 342 336 340 344 344 345 344 341 338 337 336 335 335 335 336 337 339
340 341 341 347 348 346 347 346 348 347 346 345 345 346 349 351 350 349 348 349 347 343 338 334 343 344 344 344 343 342 340 340 339 339 336 335 336 336
338 337 338 341 346 346 347 345 346 348 346 345 344 346 349 351 351 348 347 348 348 346 343 337 333 342 340 339 342 342 341 339 339 339 337 335 334 334
341 340 346 345 342 343 346 345 347 348 347 345 343 347 348 351 350 350 349 348 348 347 347 342 342 338 336 334 334 339 343 343 342 340 338 336 335 335
348 333 332 329 332 338 340 345 346 346 344 346 346 347 348 351 350 350 349 349 348 346 345 343 343 344 344 343 342 339 336 337 340 341 343 343 343 342
332 329 331 335 334 335 341 344 345 346 345 345 347 347 347 350 351 351 350 350 349 350 350 347 348 346 345 345 343 345 345 343 342 344 343 342 342 343
328 329 332 338 340 342 342 339 340 343 345 346 343 346 348 351 350 351 352 352 352 349 349 349 345 344 345 346 347 347 347 346 345 345 345 345 346 345
326 324 328 335 338 333 331 339 336 338 341 341 344 346 346 348 349 349 347 350 351 350 349 349 345 343 341 342 346 347 347 346 346 345 346 346 347 346
327 328 328 333 332 334 333 336 333 329 331 333 336 339 340 344 349 349 352 351 349 349 348 348 340 346 344 342 341 343 343 346 344 344 343 344 344 346
327 328 327 330 331 331 332 327 332 333 333 330 330 342 340 336 336 336 344 348 347 346 347 347 343 346 345 344 343 343 342 344 344 342 339 341 343 344
338 333 328 328 331 331 334 333 329 325 326 326 327 326 327 326 333 342 344 336 338 345 346 345 347 347 347 344 342 343 345 345 344 344 343 342 342 343
332 341 340 338 334 333 333 339 338 331 327 328 330 331 331 329 326 324 330 340 347 346 339 345 346 342 345 344 342 342 345 345 344 342 341 341 340 341
331 327 330 339 339 337 335 335 337 339 335 328 328 330 334 334 333 327 330 347 348 346 345 345 346 345 346 343 342 343 343 343 341 341 340 340 340 339
331 333 332 333 340 340 339 338 337 338 340 340 329 332 336 335 334 332 326 341 348 346 349 349 346 345 346 344 342 341 341 341 340 337 334 336 337 337
324 326 332 332 332 335 338 338 339 340 340 340 337 331 337 336 336 334 330 327 343 342 342 347 348 347 345 343 341 339 339 337 336 336 339 340 339 338
327 324 325 331 332 331 331 331 336 340 339 340 340 330 337 337 337 335 334 328 332 340 341 350 348 347 345 342 339 338 339 338 338 339 337 338 337 335
325 324 324 328 331 332 332 331 330 331 337 337 339 336 333 334 337 336 336 334 328 338 341 344 346 345 343 340 338 338 338 337 337 336 336 336 333 330
327 327 324 327 330 331 332 332 331 331 331 334 335 337 338 336 336 337 337 336 329 337 341 342 344 343 340 338 338 339 337 336 336 335 334 332 330 327
321 327 327 325 328 329 331 332 331 331 331 331 331 332 333 334 336 336 336 336 331 333 341 341 341 340 339 339 339 338 336 335 334 333 326 325 324 323
323 325 328 329 330 331 333 332 332 332 332 331 331 330 330 331 334 335 335 336 332 334 341 341 340 338 338 338 338 335 332 331 328 325 322 319 314 312
Wind_Speed
27 22 19 20 20 19 19 21 21 24 27 18 8 4 5 4 5 6 5 6 9 13 18 28 32 35 36 37 35 32 28 25 23 23 24 24 23 23
26 22 19 20 20 20 19 20 21 22 26 20 14 12 10 9 9 10 7 7 6 8 14 19 29 33 34 37 37 37 34 31 28 26 25 26 26 25
17 19 21 22 20 21 20 21 23 22 26 24 17 12 11 11 9 10 11 10 7 7 9 15 21 29 33 36 36 37 37 36 34 32 29 28 27 27
14 16 21 20 21 23 23 24 24 23 24 27 20 15 12 12 12 11 10 11 9 8 7 8 15 23 29 33 34 38 39 39 38 37 35 33 31 31
11 16 19 17 20 20 22 22 23 22 21 24 26 19 14 13 12 11 10 9 9 8 8 5 7 15 23 24 26 30 33 35 37 39 39 36 35 34
22 19 23 26 24 24 24 23 22 21 19 20 22 24 18 14 13 11 10 7 8 9 9 8 5 8 7 15 17 24 28 29 31 35 39 39 37 36
25 26 27 27 23 22 24 22 20 20 20 23 20 25 22 17 14 11 12 11 9 9 11 11 10 10 11 10 4 5 18 24 27 31 36 39 40 41
21 18 16 20 23 22 20 17 15 18 23 24 24 26 25 17 13 13 12 13 11 8 9 10 11 12 13 13 16 19 17 17 18 23 28 32 34 35
12 13 19 19 16 18 16 14 15 15 22 21 22 27 28 21 15 15 16 15 12 10 10 13 13 13 13 12 11 11 14 19 21 21 21 23 25 27
13 13 17 11 7 6 9 11 14 15 16 17 21 25 27 21 19 17 15 15 16 16 14 16 13 14 14 14 14 15 14 18 18 18 20 21 21 22
17 18 18 12 6 9 14 13 14 17 17 16 19 20 22 18 18 19 19 19 21 20 17 18 16 12 11 11 12 14 19 21 23 22 23 25 26 25
23 23 21 17 15 16 19 16 12 8 12 11 8 23 24 19 19 20 20 22 21 21 19 21 15 11 10 11 6 7 13 19 23 25 28 27 29 29
30 30 25 19 17 16 16 18 20 20 18 17 26 25 20 18 18 17 20 20 22 22 21 18 17 14 14 15 15 13 13 15 17 21 24 25 26 28
33 33 31 29 22 20 20 19 16 19 20 17 14 14 12 12 17 21 19 22 18 16 17 20 23 20 19 19 18 17 16 17 19 20 20 16 13 15
33 33 32 32 31 28 23 22 22 22 21 20 16 14 12 12 11 12 18 24 24 24 20 20 19 19 18 22 22 20 19 17 16 17 20 21 20 19
28 29 32 32 32 32 31 27 27 27 27 25 22 15 12 15 17 17 17 15 19 21 23 21 21 19 18 22 23 21 16 12 10 11 12 17 23 20
30 28 28 28 29 30 30 31 31 30 32 31 27 19 14 14 15 18 19 16 16 16 16 21 23 22 23 24 23 17 15 14 13 11 10 12 13 13
33 35 33 31 32 33 32 30 30 28 31 33 32 24 17 14 16 18 21 20 18 17 17 19 21 25 26 24 20 15 14 14 13 11 9 8 8 9
33 33 36 35 32 30 30 36 36 31 26 29 33 29 22 18 18 20 22 23 21 19 18 18 20 27 27 25 19 17 15 13 13 12 10 10 9 9
36 38 36 35 33 32 31 31 31 36 34 30 29 33 29 26 25 24 25 25 22 20 19 19 21 25 26 22 20 16 15 13 14 13 14 14 12 11
35 34 33 32 32 32 30 34 30 32 33 32 31 32 32 34 32 29 28 26 23 22 21 19 20 20 21 19 19 17 16 16 14 13 15 14 13 14
35 32 30 31 31 31 30 31 34 30 30 29 30 31 34 35 35 34 32 30 26 25 23 19 19 22 24 24 21 20 19 19 18 18 13 13 13 14
30 30 26 26 24 23 25 23 25 26 26 26 28 30 32 34 35 36 33 31 27 25 25 23 22 23 23 23 22 23 21 21 19 17 16 13 10 8
Wind_Direction
265 262 268 277 275 274 274 278 281 286 294 302 313 285 304 290 252 241 236 242 253 248 235 229 224 224 225 224 226 227 227 229 228 231 234 234 235 238
263 258 265 273 278 272 271 271 271 272 274 281 293 293 286 287 260 244 246 253 264 266 251 234 224 224 224 222 226 230 233 233 235 235 236 239 239 239
257 266 270 274 278 277 279 276 273 271 270 280 279 276 282 277 272 245 246 251 255 272 277 247 231 224 225 225 227 230 232 235 237 239 239 239 242 243
287 281 283 289 286 283 277 273 270 273 274 279 276 269 272 268 269 264 251 248 248 259 278 283 239 230 228 224 228 233 236 238 238 240 241 241 241 244
307 313 308 299 292 279 283 278 281 277 274 277 280 276 269 270 259 261 246 248 243 248 253 292 248 237 243 220 228 232 234 236 238 238 238 241 244 246
292 299 300 298 293 276 275 278 277 273 266 263 270 274 266 263 257 251 242 242 233 242 246 243 244 228 223 227 234 234 235 237 237 237 238 241 246 249
292 293 295 295 291 283 278 278 270 258 256 257 259 264 264 255 255 247 247 235 228 237 241 243 246 239 223 215 179 241 236 240 240 240 241 243 246 249
296 298 308 307 280 270 270 269 267 257 257 254 266 269 268 250 240 239 239 236 234 229 230 231 238 253 258 249 252 248 246 243 242 247 245 245 247 249
285 295 313 316 290 269 266 262 275 270 261 265 279 276 265 247 235 235 236 237 241 236 234 244 245 255 262 254 260 266 249 241 241 242 245 246 246 248
264 300 319 324 312 283 253 256 262 262 257 255 267 269 272 259 241 242 238 244 241 236 240 246 248 252 251 256 257 251 251 248 244 244 246 246 247 252
259 283 300 302 256 285 287 283 299 287 278 275 286 272 268 257 241 252 257 245 251 254 247 250 253 257 244 253 258 255 254 248 244 245 248 250 250 249
269 276 279 283 280 270 278 265 266 320 289 289 255 281 281 266 253 247 247 255 254 264 266 261 266 250 270 269 266 265 266 256 254 256 258 256 252 252
271 274 273 272 274 273 273 266 261 274 280 282 284 276 274 276 265 265 260 256 261 260 264 259 284 279 269 273 280 283 274 263 265 266 263 260 253 255
271 272 273 276 270 267 260 263 264 263 255 250 273 281 282 276 268 265 262 259 267 255 258 261 265 272 280 281 276 278 274 269 266 263 259 257 253 255
266 267 269 270 271 267 261 257 257 257 257 255 257 273 293 312 317 306 273 259 260 255 246 251 249 251 263 270 275 277 272 268 262 251 258 269 260 251
272 267 263 262 262 264 264 257 255 253 255 256 257 252 273 300 316 321 315 286 268 261 244 239 244 253 258 259 264 264 261 253 237 239 251 250 249 254
273 270 267 261 256 258 260 261 261 257 254 252 253 247 256 275 300 307 312 304 281 279 265 241 236 239 240 245 253 252 247 240 234 237 248 252 243 244
272 268 268 267 266 263 262 262 262 265 260 253 247 242 250 266 283 297 298 302 287 286 276 263 239 225 227 235 238 234 223 222 229 238 230 213 212 197
262 269 264 261 262 262 263 263 262 260 265 257 242 240 247 259 273 283 289 290 289 283 278 261 246 227 223 225 230 223 219 219 218 211 204 189 184 184
266 268 263 256 256 259 261 260 263 258 257 258 254 244 245 263 270 271 277 280 283 278 274 262 239 227 226 233 223 221 214 217 209 198 190 191 195 197
272 270 263 258 253 256 260 256 258 259 256 250 252 253 256 257 261 262 267 271 274 267 261 255 239 226 228 224 218 213 205 197 203 213 204 202 203 206
265 265 265 258 253 255 260 257 251 254 252 252 252 252 253 255 257 257 260 262 261 259 256 250 233 219 214 218 219 206 193 195 194 199 191 204 210 216
264 257 262 256 251 252 248 247 247 248 253 252 254 258 260 258 256 258 259 255 254 250 240 231 214 215 220 216 207 198 192 192 194 197 196 205 219 234